{"data":{"norad_id":40056,"intl_designator":"2014-034D","name":"CANX-5","alt_names":[],"object_type":"PAYLOAD","status":"ACTIVE","operator":null,"country":"CA","launch_date":"2014-06-30","launch_site_code":"SRILR","launch_vehicle":null,"mission":null,"orbit_class":"UNKNOWN","rcs_meters":0.101,"size_class":null,"mass_kg":null,"dimensions":null,"purposes":["tech_demo"],"wikipedia_slug":null,"has_3d_model":false,"image_url":null,"decayed_at":null,"tle_current":{"epoch":"2026-09-20T02:53:54.894336Z","epoch_age_seconds":51104,"freshness":"FRESH","line1":"1 40056U 14034D   26263.12077424  .00000520  00000+0  73719-4 0  9990","line2":"2 40056  98.2957 141.8993 0014002  67.9688 292.3009 14.81417535649398","mean_motion":14.81417535,"eccentricity":0.0014002,"inclination_deg":98.2957,"raan_deg":141.8993,"arg_perigee_deg":67.9688,"mean_anomaly_deg":292.3009,"bstar":7.3719e-5,"rev_number":64939,"period_min":97.204195709753,"perigee_km":615.04764703464,"apogee_km":634.65882088582,"semimajor_km":7002.9902339602,"source":"CELESTRAK","updated_at":"2026-09-20T09:00:48.027381Z"}}}